BTK6762 WAAA-WAMM

Flight info

Callsign BTK6762
Flight time 1h 22m
Altitude 37000
Route VENRU W32 LUANG
Aircraft A320/M-SDE3FGHIRWY/LB1

Departure

Time 2026-04-20 03:38
Airport Sultan Hasanuddin International Airport (WAAA)

Arrival

Time 2026-04-20 05:00
Airport Sam Ratulangi International Airport (WAMM)
Time Latitude Longitude Altitude Speed Heading
2026-04-20 03:17 -5.07609 119.54823 41 ft 0 kts 300°
2026-04-20 03:28 -5.07610 119.54824 42 ft 2 kts 300°
2026-04-20 03:29 -5.07620 119.54841 41 ft 3 kts 300°
2026-04-20 03:29 -5.07630 119.54859 42 ft 3 kts 300°
2026-04-20 03:29 -5.07641 119.54877 42 ft 3 kts 299°
2026-04-20 03:29 -5.07647 119.54890 42 ft 2 kts 277°
2026-04-20 03:30 -5.07648 119.54902 41 ft 2 kts 250°
2026-04-20 03:30 -5.07642 119.54913 40 ft 1 kts 227°
2026-04-20 03:30 -5.07636 119.54919 42 ft 1 kts 219°
2026-04-20 03:30 -5.07630 119.54924 42 ft 1 kts 214°
2026-04-20 03:31 -5.07629 119.54925 41 ft 1 kts 212°
2026-04-20 03:31 -5.07631 119.54924 41 ft 0 kts 212°
2026-04-20 03:31 -5.07632 119.54923 41 ft 1 kts 212°
2026-04-20 03:32 -5.07661 119.54905 41 ft 7 kts 211°
2026-04-20 03:32 -5.07708 119.54878 41 ft 9 kts 210°
2026-04-20 03:32 -5.07767 119.54843 41 ft 11 kts 210°
2026-04-20 03:32 -5.07840 119.54801 41 ft 13 kts 210°
2026-04-20 03:33 -5.07915 119.54757 41 ft 10 kts 210°
2026-04-20 03:33 -5.07977 119.54729 41 ft 11 kts 184°
2026-04-20 03:33 -5.08031 119.54782 41 ft 12 kts 120°
2026-04-20 03:33 -5.08095 119.54842 41 ft 14 kts 172°
2026-04-20 03:34 -5.08190 119.54800 41 ft 16 kts 210°
2026-04-20 03:34 -5.08294 119.54740 41 ft 18 kts 210°
2026-04-20 03:34 -5.08411 119.54672 41 ft 20 kts 210°
2026-04-20 03:34 -5.08540 119.54598 41 ft 22 kts 210°
2026-04-20 03:35 -5.08682 119.54517 41 ft 24 kts 210°
2026-04-20 03:35 -5.08832 119.54430 40 ft 22 kts 210°
2026-04-20 03:35 -5.08972 119.54349 41 ft 24 kts 210°
2026-04-20 03:35 -5.09080 119.54287 41 ft 15 kts 209°
2026-04-20 03:36 -5.09168 119.54300 40 ft 14 kts 124°
2026-04-20 03:36 -5.09197 119.54350 42 ft 8 kts 120°
2026-04-20 03:36 -5.09224 119.54399 42 ft 7 kts 99°
2026-04-20 03:36 -5.09206 119.54418 42 ft 4 kts 36°
2026-04-20 03:37 -5.09196 119.54424 42 ft 1 kts 30°
2026-04-20 03:37 -5.09066 119.54499 44 ft 55 kts 30°
2026-04-20 03:37 -5.08540 119.54800 39 ft 116 kts 30°
2026-04-20 03:37 -5.07700 119.55287 48 ft 161 kts 30°
2026-04-20 03:38 -5.06673 119.55857 415 ft 174 kts 22°
2026-04-20 03:38 -5.05475 119.56019 1112 ft 174 kts 357°
2026-04-20 03:38 -5.04272 119.55898 1713 ft 177 kts 359°
2026-04-20 03:38 -5.02977 119.55867 2030 ft 196 kts
2026-04-20 03:39 -5.01539 119.55859 2289 ft 218 kts
2026-04-20 03:39 -4.99925 119.55856 2605 ft 245 kts
2026-04-20 03:39 -4.98145 119.55859 3044 ft 265 kts
2026-04-20 03:39 -4.96274 119.55870 3796 ft 272 kts 360°
2026-04-20 03:40 -4.94364 119.55881 4614 ft 276 kts 359°
2026-04-20 03:40 -4.92433 119.55884 5464 ft 280 kts 360°
2026-04-20 03:40 -4.90478 119.55943 6278 ft 283 kts
2026-04-20 03:40 -4.88594 119.56536 7046 ft 287 kts 28°
2026-04-20 03:41 -4.86988 119.57732 7807 ft 290 kts 41°
2026-04-20 03:41 -4.85463 119.59074 8558 ft 293 kts 41°
2026-04-20 03:41 -4.83920 119.60424 9295 ft 297 kts 41°
2026-04-20 03:41 -4.82357 119.61786 10014 ft 300 kts 41°
2026-04-20 03:42 -4.80741 119.63193 10337 ft 318 kts 41°
2026-04-20 03:42 -4.79013 119.64699 10474 ft 340 kts 41°
2026-04-20 03:42 -4.77184 119.66295 10799 ft 354 kts 41°
2026-04-20 03:42 -4.75316 119.67927 11342 ft 359 kts 41°
2026-04-20 03:43 -4.73424 119.69576 11905 ft 363 kts 41°
2026-04-20 03:43 -4.71511 119.71242 12453 ft 366 kts 41°
2026-04-20 03:43 -4.69582 119.72922 12997 ft 369 kts 41°
2026-04-20 03:43 -4.67640 119.74617 13523 ft 372 kts 41°
2026-04-20 03:44 -4.65675 119.76331 13977 ft 376 kts 41°
2026-04-20 03:44 -4.63695 119.78054 14464 ft 379 kts 41°
2026-04-20 03:44 -4.61699 119.79791 14977 ft 381 kts 41°
2026-04-20 03:44 -4.59718 119.81518 15469 ft 384 kts 41°
2026-04-20 03:45 -4.57665 119.83308 15879 ft 388 kts 41°
2026-04-20 03:45 -4.55649 119.85067 16326 ft 390 kts 41°
2026-04-20 03:45 -4.53597 119.86858 16801 ft 393 kts 41°
2026-04-20 03:45 -4.51534 119.88660 17315 ft 394 kts 41°
2026-04-20 03:46 -4.49460 119.90472 17792 ft 397 kts 41°
2026-04-20 03:46 -4.47370 119.92295 18258 ft 400 kts 41°
2026-04-20 03:46 -4.45269 119.94128 18725 ft 402 kts 41°
2026-04-20 03:46 -4.43151 119.95974 19169 ft 405 kts 41°
2026-04-20 03:47 -4.41012 119.97839 19592 ft 409 kts 41°
2026-04-20 03:47 -4.38860 119.99716 20020 ft 412 kts 41°
2026-04-20 03:47 -4.36692 120.01607 20438 ft 415 kts 41°
2026-04-20 03:47 -4.34510 120.03511 20856 ft 418 kts 41°
2026-04-20 03:48 -4.32306 120.05434 21264 ft 421 kts 41°
2026-04-20 03:48 -4.30087 120.07367 21659 ft 424 kts 41°
2026-04-20 03:48 -4.27856 120.09309 22049 ft 427 kts 41°
2026-04-20 03:48 -4.25609 120.11262 22430 ft 429 kts 41°
2026-04-20 03:49 -4.23346 120.13229 22805 ft 431 kts 41°
2026-04-20 03:49 -4.21077 120.15207 23183 ft 434 kts 41°
2026-04-20 03:49 -4.18794 120.17196 23530 ft 436 kts 41°
2026-04-20 03:49 -4.16500 120.19196 23891 ft 439 kts 41°
2026-04-20 03:50 -4.14190 120.21207 24238 ft 441 kts 41°
2026-04-20 03:50 -4.11868 120.23227 24564 ft 443 kts 41°
2026-04-20 03:50 -4.09531 120.25258 24898 ft 446 kts 41°
2026-04-20 03:50 -4.07184 120.27298 25203 ft 448 kts 41°
2026-04-20 03:51 -4.04825 120.29350 25513 ft 450 kts 41°
2026-04-20 03:51 -4.02457 120.31416 25831 ft 452 kts 41°
2026-04-20 03:51 -4.00081 120.33488 26127 ft 454 kts 41°
2026-04-20 03:51 -3.97691 120.35572 26387 ft 457 kts 41°
2026-04-20 03:52 -3.95289 120.37665 26681 ft 459 kts 41°
2026-04-20 03:52 -3.92871 120.39770 26989 ft 460 kts 42°
2026-04-20 03:52 -3.90454 120.41874 27294 ft 461 kts 42°
2026-04-20 03:52 -3.88031 120.43984 27600 ft 462 kts 42°
2026-04-20 03:53 -3.85599 120.46100 27896 ft 464 kts 42°
2026-04-20 03:53 -3.83160 120.48219 28181 ft 465 kts 42°
2026-04-20 03:53 -3.80709 120.50346 28464 ft 467 kts 42°
2026-04-20 03:53 -3.78251 120.52481 28749 ft 468 kts 42°
2026-04-20 03:54 -3.75790 120.54619 29087 ft 468 kts 42°
2026-04-20 03:54 -3.73334 120.56752 29488 ft 466 kts 42°
2026-04-20 03:54 -3.71716 120.58157 29788 ft 464 kts 42°
2026-04-20 03:54 -3.69286 120.60267 30232 ft 461 kts 41°
2026-04-20 03:55 -3.66867 120.62367 30661 ft 459 kts 41°
2026-04-20 03:55 -3.64459 120.64458 31050 ft 458 kts 41°
2026-04-20 03:55 -3.62057 120.66543 31414 ft 457 kts 41°
2026-04-20 03:55 -3.59657 120.68630 31773 ft 456 kts 41°
2026-04-20 03:56 -3.57269 120.70713 32139 ft 455 kts 41°
2026-04-20 03:56 -3.54880 120.72796 32487 ft 455 kts 41°
2026-04-20 03:56 -3.52495 120.74874 32835 ft 454 kts 41°
2026-04-20 03:56 -3.50114 120.76946 33184 ft 453 kts 41°
2026-04-20 03:57 -3.47735 120.79010 33516 ft 453 kts 41°
2026-04-20 03:57 -3.45351 120.81069 33838 ft 452 kts 41°
2026-04-20 03:57 -3.42974 120.83126 34154 ft 452 kts 41°
2026-04-20 03:57 -3.40604 120.85186 34466 ft 451 kts 41°
2026-04-20 03:58 -3.38235 120.87245 34760 ft 450 kts 41°
2026-04-20 03:58 -3.35875 120.89297 35056 ft 450 kts 41°
2026-04-20 03:58 -3.33515 120.91352 35335 ft 449 kts 41°
2026-04-20 03:58 -3.31159 120.93405 35603 ft 449 kts 41°
2026-04-20 03:59 -3.28803 120.95454 35860 ft 448 kts 42°
2026-04-20 03:59 -3.26450 120.97496 36123 ft 448 kts 42°
2026-04-20 03:59 -3.24099 120.99539 36364 ft 448 kts 42°
2026-04-20 03:59 -3.21780 121.01556 36572 ft 448 kts 42°
2026-04-20 04:00 -3.19431 121.03596 36777 ft 448 kts 42°
2026-04-20 04:00 -3.17042 121.05667 36893 ft 449 kts 42°
2026-04-20 04:00 -3.12312 121.09762 36918 ft 456 kts 42°
2026-04-20 04:01 -3.07496 121.13908 36924 ft 458 kts 41°
2026-04-20 04:01 -3.02549 121.17968 36920 ft 461 kts 40°
2026-04-20 04:02 -2.97557 121.21996 36921 ft 461 kts 40°
2026-04-20 04:02 -2.92586 121.26043 36929 ft 460 kts 40°
2026-04-20 04:03 -2.87642 121.30115 36914 ft 461 kts 40°
2026-04-20 04:03 -2.82680 121.34206 36903 ft 463 kts 40°
2026-04-20 04:04 -2.77690 121.38295 36905 ft 464 kts 40°
2026-04-20 04:04 -2.72694 121.42390 36913 ft 465 kts 40°
2026-04-20 04:05 -2.67687 121.46496 36929 ft 465 kts 40°
2026-04-20 04:05 -2.62687 121.50601 36931 ft 465 kts 40°
2026-04-20 04:06 -2.57670 121.54699 36934 ft 465 kts 40°
2026-04-20 04:06 -2.52662 121.58800 36931 ft 465 kts 40°
2026-04-20 04:07 -2.47660 121.62911 36912 ft 466 kts 40°
2026-04-20 04:07 -2.42650 121.67030 36916 ft 466 kts 40°
2026-04-20 04:08 -2.37703 121.71162 36935 ft 466 kts 42°
2026-04-20 04:08 -2.32818 121.75420 36942 ft 466 kts 42°
2026-04-20 04:09 -2.27948 121.79684 36943 ft 465 kts 42°
2026-04-20 04:09 -2.23067 121.83914 36943 ft 464 kts 42°
2026-04-20 04:10 -2.18181 121.88125 36943 ft 464 kts 42°
2026-04-20 04:10 -2.13301 121.92340 36941 ft 463 kts 42°
2026-04-20 04:11 -2.08429 121.96557 36940 ft 463 kts 42°
2026-04-20 04:11 -2.03552 122.00774 36939 ft 463 kts 42°
2026-04-20 04:12 -1.98679 122.04984 36939 ft 463 kts 42°
2026-04-20 04:12 -1.93811 122.09192 36936 ft 463 kts 42°
2026-04-20 04:13 -1.88939 122.13402 36922 ft 463 kts 42°
2026-04-20 04:13 -1.84055 122.17621 36902 ft 465 kts 42°
2026-04-20 04:14 -1.79156 122.21857 36906 ft 466 kts 42°
2026-04-20 04:14 -1.74246 122.26096 36904 ft 467 kts 42°
2026-04-20 04:15 -1.69332 122.30341 36916 ft 467 kts 42°
2026-04-20 04:15 -1.64419 122.34595 36917 ft 467 kts 42°
2026-04-20 04:16 -1.59498 122.38844 36929 ft 468 kts 42°
2026-04-20 04:16 -1.54566 122.43096 36932 ft 468 kts 42°
2026-04-20 04:17 -1.49639 122.47346 36931 ft 468 kts 42°
2026-04-20 04:17 -1.44711 122.51598 36932 ft 468 kts 42°
2026-04-20 04:18 -1.39787 122.55857 37003 ft 469 kts 42°
2026-04-20 04:18 -1.34856 122.60127 37015 ft 469 kts 42°
2026-04-20 04:19 -1.29958 122.64361 37018 ft 469 kts 42°
2026-04-20 04:19 -1.24992 122.68640 37018 ft 468 kts 42°
2026-04-20 04:20 -1.20100 122.72864 37016 ft 468 kts 42°
2026-04-20 04:20 -1.15181 122.77113 37014 ft 467 kts 42°
2026-04-20 04:21 -1.10266 122.81358 37013 ft 467 kts 42°
2026-04-20 04:21 -1.05338 122.85606 37013 ft 468 kts 42°
2026-04-20 04:22 -1.00412 122.89852 37014 ft 468 kts 42°
2026-04-20 04:22 -0.95487 122.94106 37015 ft 468 kts 42°
2026-04-20 04:23 -0.90562 122.98366 37006 ft 469 kts 43°
2026-04-20 04:23 -0.85632 123.02640 37003 ft 470 kts 43°
2026-04-20 04:24 -0.80740 123.06975 37004 ft 470 kts 43°
2026-04-20 04:24 -0.75860 123.11332 37003 ft 470 kts 43°
2026-04-20 04:25 -0.71001 123.15648 36993 ft 471 kts 43°
2026-04-20 04:25 -0.66087 123.19994 36995 ft 472 kts 43°
2026-04-20 04:26 -0.61171 123.24340 37007 ft 472 kts 43°
2026-04-20 04:26 -0.56250 123.28684 37016 ft 472 kts 43°
2026-04-20 04:27 -0.51340 123.33028 37018 ft 471 kts 43°
2026-04-20 04:27 -0.46435 123.37369 37018 ft 471 kts 43°
2026-04-20 04:28 -0.41527 123.41705 37027 ft 470 kts 43°
2026-04-20 04:28 -0.36650 123.46019 37033 ft 467 kts 43°
2026-04-20 04:29 -0.31804 123.50318 37032 ft 465 kts 44°
2026-04-20 04:29 -0.26977 123.54593 37029 ft 463 kts 44°
2026-04-20 04:30 -0.22160 123.58861 37026 ft 462 kts 43°
2026-04-20 04:30 -0.17344 123.63116 37023 ft 462 kts 43°
2026-04-20 04:31 -0.12536 123.67370 37021 ft 462 kts 44°
2026-04-20 04:31 -0.07730 123.71625 37019 ft 461 kts 43°
2026-04-20 04:32 -0.02957 123.75845 36845 ft 461 kts 44°
2026-04-20 04:32 -0.00559 123.77968 36596 ft 460 kts 43°
2026-04-20 04:32 0.01839 123.80091 36346 ft 460 kts 43°
2026-04-20 04:33 0.04265 123.82242 36094 ft 460 kts 43°
2026-04-20 04:33 0.06675 123.84344 35842 ft 461 kts 39°
2026-04-20 04:33 0.09323 123.86150 35595 ft 463 kts 33°
2026-04-20 04:33 0.12075 123.87827 35343 ft 463 kts 33°
2026-04-20 04:34 0.14822 123.89509 35099 ft 464 kts 33°
2026-04-20 04:34 0.17573 123.91198 34848 ft 464 kts 33°
2026-04-20 04:34 0.20325 123.92889 34599 ft 465 kts 33°
2026-04-20 04:34 0.23083 123.94583 34349 ft 465 kts 33°
2026-04-20 04:35 0.25844 123.96278 34101 ft 466 kts 32°
2026-04-20 04:35 0.28607 123.97973 33851 ft 468 kts 32°
2026-04-20 04:35 0.31389 123.99679 33601 ft 470 kts 32°
2026-04-20 04:35 0.34175 124.01387 33170 ft 471 kts 32°
2026-04-20 04:36 0.39812 124.04841 31069 ft 484 kts 32°
2026-04-20 04:36 0.42678 124.06597 30463 ft 480 kts 32°
2026-04-20 04:36 0.45513 124.08334 29806 ft 477 kts 33°
2026-04-20 04:37 0.48332 124.10062 29156 ft 473 kts 33°
2026-04-20 04:37 0.51128 124.11776 28494 ft 470 kts 33°
2026-04-20 04:37 0.53899 124.13476 27846 ft 466 kts 33°
2026-04-20 04:37 0.56657 124.15168 27199 ft 463 kts 33°
2026-04-20 04:38 0.59396 124.16848 26555 ft 461 kts 33°
2026-04-20 04:38 0.62118 124.18519 25925 ft 458 kts 32°
2026-04-20 04:38 0.64825 124.20185 25286 ft 455 kts 32°
2026-04-20 04:38 0.67516 124.21838 24652 ft 453 kts 31°
2026-04-20 04:39 0.70180 124.23469 24037 ft 443 kts 31°
2026-04-20 04:39 0.72754 124.25046 23472 ft 426 kts 30°
2026-04-20 04:39 0.75236 124.26569 22927 ft 412 kts 31°
2026-04-20 04:39 0.77638 124.28045 22404 ft 398 kts 31°
2026-04-20 04:40 0.79972 124.29478 21921 ft 393 kts 31°
2026-04-20 04:40 0.82305 124.30909 21417 ft 394 kts 30°
2026-04-20 04:40 0.84612 124.32322 20940 ft 393 kts 31°
2026-04-20 04:40 0.86977 124.33769 20432 ft 393 kts 31°
2026-04-20 04:41 0.89278 124.35178 19922 ft 392 kts 31°
2026-04-20 04:41 0.91598 124.36601 19404 ft 391 kts 31°
2026-04-20 04:41 0.93911 124.38020 18864 ft 390 kts 31°
2026-04-20 04:41 0.96237 124.39403 18327 ft 390 kts 25°
2026-04-20 04:42 0.98801 124.40371 17811 ft 396 kts 15°
2026-04-20 04:42 1.01507 124.40855 17535 ft 396 kts
2026-04-20 04:42 1.04237 124.41225 17280 ft 396 kts
2026-04-20 04:42 1.06965 124.41596 17036 ft 396 kts
2026-04-20 04:43 1.09683 124.41963 16781 ft 392 kts
2026-04-20 04:43 1.12375 124.42323 16530 ft 389 kts
2026-04-20 04:43 1.15049 124.42679 16279 ft 386 kts
2026-04-20 04:43 1.17704 124.43033 16030 ft 384 kts
2026-04-20 04:44 1.20340 124.43385 15780 ft 381 kts
2026-04-20 04:44 1.22966 124.43747 15529 ft 380 kts
2026-04-20 04:44 1.25574 124.44118 15279 ft 378 kts
2026-04-20 04:44 1.27297 124.44366 15113 ft 377 kts
2026-04-20 04:45 1.29886 124.44740 14897 ft 374 kts
2026-04-20 04:45 1.33334 124.45236 15006 ft 376 kts
2026-04-20 04:45 1.35051 124.45482 15001 ft 374 kts
2026-04-20 04:45 1.37568 124.45842 15000 ft 356 kts
2026-04-20 04:46 1.39964 124.46183 15004 ft 340 kts
2026-04-20 04:46 1.42269 124.46509 15001 ft 331 kts
2026-04-20 04:46 1.44545 124.46829 15001 ft 330 kts
2026-04-20 04:46 1.46814 124.47146 15006 ft 329 kts
2026-04-20 04:47 1.49085 124.47465 15002 ft 329 kts
2026-04-20 04:47 1.51350 124.47785 15002 ft 329 kts
2026-04-20 04:47 1.53620 124.48109 15004 ft 329 kts
2026-04-20 04:47 1.55887 124.48434 15002 ft 329 kts
2026-04-20 04:48 1.58153 124.48759 15003 ft 329 kts
2026-04-20 04:48 1.60421 124.49095 15001 ft 329 kts
2026-04-20 04:48 1.62615 124.49752 15001 ft 331 kts 22°
2026-04-20 04:48 1.64627 124.50865 14840 ft 331 kts 36°
2026-04-20 04:49 1.66378 124.52350 14592 ft 330 kts 42°
2026-04-20 04:49 1.68078 124.53885 14340 ft 328 kts 41°
2026-04-20 04:49 1.69769 124.55405 14085 ft 326 kts 41°
2026-04-20 04:49 1.71452 124.56917 13841 ft 325 kts 41°
2026-04-20 04:50 1.73132 124.58422 13554 ft 323 kts 41°
2026-04-20 04:50 1.74809 124.59924 13120 ft 325 kts 43°
2026-04-20 04:50 1.76488 124.61429 12756 ft 323 kts 42°
2026-04-20 04:50 1.78158 124.62930 12428 ft 320 kts 43°
2026-04-20 04:51 1.79573 124.64605 11836 ft 314 kts 60°
2026-04-20 04:51 1.80423 124.66585 11269 ft 307 kts 77°
2026-04-20 04:51 1.80695 124.68664 10812 ft 298 kts 91°
2026-04-20 04:51 1.80694 124.70702 10382 ft 289 kts 91°
2026-04-20 04:52 1.80703 124.72712 9962 ft 290 kts 91°
2026-04-20 04:52 1.80715 124.74742 9519 ft 294 kts 91°
2026-04-20 04:52 1.80728 124.76794 9085 ft 295 kts 91°
2026-04-20 04:52 1.80739 124.78821 8650 ft 287 kts 91°
2026-04-20 04:53 1.80748 124.80786 8233 ft 279 kts 91°
2026-04-20 04:53 1.80757 124.82690 7826 ft 272 kts 91°
2026-04-20 04:53 1.80766 124.84554 7433 ft 265 kts 91°
2026-04-20 04:53 1.80773 124.86372 7045 ft 259 kts 91°
2026-04-20 04:54 1.80777 124.88144 6674 ft 252 kts 91°
2026-04-20 04:54 1.80521 124.89817 6306 ft 244 kts 110°
2026-04-20 04:54 1.79768 124.91266 5948 ft 227 kts 128°
2026-04-20 04:54 1.78687 124.92341 5542 ft 215 kts 144°
2026-04-20 04:55 1.77384 124.93036 4962 ft 210 kts 160°
2026-04-20 04:55 1.75991 124.93313 4494 ft 198 kts 177°
2026-04-20 04:55 1.74686 124.93287 4216 ft 176 kts 181°
2026-04-20 04:55 1.73526 124.93250 3937 ft 159 kts 180°
2026-04-20 04:56 1.72452 124.93215 3717 ft 152 kts 181°
2026-04-20 04:56 1.71401 124.93181 3507 ft 151 kts 181°
2026-04-20 04:56 1.70356 124.93146 3297 ft 150 kts 180°
2026-04-20 04:56 1.69312 124.93112 3082 ft 150 kts 180°
2026-04-20 04:57 1.68266 124.93077 2872 ft 150 kts 180°
2026-04-20 04:57 1.67220 124.93042 2659 ft 150 kts 180°
2026-04-20 04:57 1.66187 124.93008 2450 ft 150 kts 181°
2026-04-20 04:57 1.65142 124.92973 2234 ft 150 kts 180°
2026-04-20 04:58 1.64109 124.92939 2017 ft 147 kts 180°
2026-04-20 04:58 1.63084 124.92906 1798 ft 147 kts 180°
2026-04-20 04:58 1.62048 124.92871 1589 ft 147 kts 179°
2026-04-20 04:58 1.61025 124.92837 1382 ft 147 kts 180°
2026-04-20 04:59 1.60021 124.92804 1195 ft 143 kts 181°
2026-04-20 04:59 1.59029 124.92773 1021 ft 142 kts 180°
2026-04-20 04:59 1.58044 124.92727 837 ft 142 kts 182°
2026-04-20 04:59 1.57060 124.92698 584 ft 141 kts 180°
2026-04-20 05:00 1.56082 124.92666 371 ft 141 kts 181°
2026-04-20 05:00 1.55167 124.92640 336 ft 114 kts 182°
2026-04-20 05:00 1.54548 124.92619 333 ft 66 kts 182°
2026-04-20 05:00 1.54267 124.92609 337 ft 23 kts 182°
2026-04-20 05:01 1.54155 124.92593 333 ft 15 kts 216°
2026-04-20 05:01 1.54135 124.92533 337 ft 7 kts 273°
2026-04-20 05:01 1.54137 124.92478 337 ft 9 kts 273°
2026-04-20 05:01 1.54156 124.92421 333 ft 7 kts 322°
2026-04-20 05:02 1.54188 124.92414 334 ft 5 kts 356°
2026-04-20 05:02 1.54232 124.92415 336 ft 8 kts
2026-04-20 05:02 1.54291 124.92416 335 ft 8 kts
2026-04-20 05:02 1.54339 124.92418 336 ft 6 kts
2026-04-20 05:03 1.54386 124.92421 334 ft 7 kts 341°
2026-04-20 05:03 1.54396 124.92383 336 ft 6 kts 272°
2026-04-20 05:03 1.54397 124.92358 336 ft 3 kts 272°
2026-04-20 05:03 1.54398 124.92345 336 ft 2 kts 272°
2026-04-20 05:04 1.54398 124.92340 336 ft 0 kts 272°